Location: La Bastide
(43.1661°N, 1.2755°E)
Time: 05:20:07
(UTC+00:00)

Cosmos 1953 Rocket - Pass Details

Date: 21 March 2026
Orbit: 599 x 626 km, 82.5° (Epoch: 15 April)

Event Time Altitude Azimuth Distance (km) Brightness Sun altitude
Rises 19:22:42 0° 231° (SW) 2,837 7.5 -14.2°
Reaches altitude 10° 19:25:43 10° 255° (WSW) 1,943 7.0 -14.8°
Maximum altitude 19:28:16 15° 291° (WNW) 1,630 6.9 -15.2°
Drops below altitude 10° 19:30:50 10° 328° (NNW) 1,958 6.8 -15.7°
Sets 19:33:55 0° 351° (N) 2,873 7.3 -16.2°
